N5GAH-13 Weather Reports


Display with metric or nautical units.
time (UTC)temp
F
wind
direction
speed
MPH
gust
MPH
rain 1hr
in
rain 24hr
in
rain mn
in
humidity
%
barometer
mb
20260905110035 73 108 2.0 4.0 0.00 0.00 0.00 76 1020.8
20260905103034 74 126 2.0 4.0 0.00 0.00 0.00 73 1020.8
20260905100035 74 122 3.0 4.0 0.00 0.00 0.00 72 1020.5
20260905090035 75 202 3.0 5.0 0.00 0.00 0.00 71 1020.2
20260905083035 76 195 2.0 5.0 0.00 0.00 0.00 69 1020.4
20260905080034 76 200 4.0 6.0 0.00 0.00 0.00 69 1020.3
20260905073034 77 201 3.0 6.0 0.00 0.00 0.00 68 1020.5
20260905070034 78 198 4.0 10.0 0.00 0.00 0.00 67 1020.6
20260905063034 78 186 4.0 7.0 0.00 0.00 0.00 65 1020.8
20260905060034 79 194 4.0 9.0 0.00 0.00 0.00 64 1020.6
20260905053034 80 190 5.0 12.0 0.00 0.00 0.00 62 1020.6
20260905050034 81 183 4.0 14.0 0.00 0.00 0.00 61 1020.8
20260905043034 82 166 5.0 13.0 0.00 0.00 0.00 57 1020.8
20260905040034 83 156 6.0 16.0 0.00 0.00 0.00 53 1020.8
20260905033034 84 147 6.0 15.0 0.00 0.00 0.00 48 1020.6
20260905030034 86 155 8.0 19.0 0.00 0.00 0.00 48 1020.1
20260905023034 88 145 7.0 14.0 0.00 0.00 0.00 45 1019.3
20260905020034 90 147 7.0 19.0 0.00 0.00 0.00 40 1018.5
20260905013034 93 170 1.0 2.0 0.00 0.00 0.00 30 1017.9
20260905010034 96 209 0.0 2.0 0.00 0.00 0.00 29 1017.8
20260905003034 98 165 1.0 4.0 0.00 0.00 0.00 26 1017.7
20260905000034 99 205 2.0 4.0 0.00 0.00 0.00 25 1017.5
20260904233033 98 213 2.0 4.0 0.00 0.00 0.00 27 1017.0
20260904230034 98 84 0.0 2.0 0.00 0.00 0.00 27 1017.0
20260904220034 99 214 3.0 7.0 0.00 0.00 0.00 25 1017.3
20260904213034 101 154 3.0 8.0 0.00 0.00 0.00 24 1017.7
20260904210034 104 129 4.0 9.0 0.00 0.00 0.00 24 1018.3
20260904203034 105 199 4.0 9.0 0.00 0.00 0.00 24 1018.7
20260904200034 104 159 4.0 9.0 0.00 0.00 0.00 26 1018.9
20260904193034 104 169 4.0 12.0 0.00 0.00 0.00 26 1019.3
20260904190034 103 200 5.0 12.0 0.00 0.00 0.00 27 1019.7
20260904183034 101 242 3.0 9.0 0.00 0.00 0.00 30 1020.1
20260904180033 100 223 5.0 12.0 0.00 0.00 0.00 30 1020.5
20260904173034 98 247 4.0 11.0 0.00 0.00 0.00 33 1020.8
20260904170034 96 228 4.0 8.0 0.00 0.00 0.00 37 1021.0
20260904160033 91 281 3.0 7.0 0.00 0.00 0.00 43 1020.8
20260904153033 88 227 5.0 10.0 0.00 0.00 0.00 47 1021.0
20260904150033 85 230 4.0 8.0 0.00 0.00 0.00 52 1021.0
20260904143034 82 261 4.0 9.0 0.00 0.00 0.00 56 1021.0
20260904130034 74 264 1.0 3.0 0.00 0.00 0.00 65 1019.9
20260904123034 74 216 1.0 3.0 0.00 0.00 0.00 63 1019.4
20260904120034 75 228 2.0 4.0 0.00 0.00 0.00 61 1019.2
20260904113034 76 223 1.0 3.0 0.00 0.00 0.00 61 1019.2